Abilene Regional Airport
KABI : now visible

Airfield :











YOU CAN JOIN US ON...

 
LOGIN :

Register | Disclaimer

   EN    FR    IT 

 









Legend :    VFR   Marginal VFR   IFR   Intensive IFR   Very Intensive IFR
Visi :
Ceiling :
>= 8 km
>= 3000ft
5 to 8 km
1000 to 3000 ft
1500m to 5 km
500 to 1000 ft
800 to 1500m
200 to 500 ft
< 800m
< 200 ft
Symbols :   Thunderstorms  Fog  Heavy snow  Heavy precipitations  Wind > 20 kt






- Airport Elevation : 1791 ft


KABI - Abilene Regional

CURRENT METAR :
  • 070552Z 00000KT 10SM CLR 24/21 A2998 RMK AO2 SLP124 T02440211 10294 20244 403330206 50010

EXPIRED METARs :
  • 070452Z 09005KT 10SM BKN120 24/21 A2999 RMK AO2 SLP127 T02440211
  • 070352Z 11004KT 10SM CLR 25/22 A2997 RMK AO2 SLP123 T02500217

TAF KABI
Valid from the 07 at 06:00 until the 08 at 06:00 UTC


070520Z 0706/0806 09004KT P6SM SCT060
FM080000 13006KT P6SM SCT040
KZFW FIR / North America



MET'MAP, your aeronautical weather chart ! - Copyright ORBIFLY December 2007 - Disclaimer

ORBIFLY MET'MAP TEAM :

Programming & Development : Alexandra Zaïnal
Concept & original design : Baudouin d'Aumeries
Assistance for programming : Marc-Olivier Méhu
Technical & hardware support : Manuel Goepfert

Contact : metmap@orbifly.com




SOURCES & CREDITS :

   NOAA       Earth
Advisory